Weather History for Juliana Airport, St. Martin

Change the Weather History Date:

Wednesday, January 1, 2014

  Actual Average Record
Temperature  
Mean Temperature 78 °F -  
Max Temperature 82 °F 81 °F 86 °F (2000)
Min Temperature 75 °F 72 °F 71 °F (2005)
Cooling Degree Days 14    
Growing Degree Days 28 (Base 50)    
Moisture  
Dew Point 70 °F    
Average Humidity 71    
Maximum Humidity 78    
Minimum Humidity 58    
Precipitation  
Precipitation 0.02 in 0.08 in - ()
Sea Level Pressure  
Sea Level Pressure 30.04 in    
Wind  
Wind Speed 14 mph ()    
Max Wind Speed 21 mph    
Max Gust Speed 31 mph    
Visibility 7.2 miles    
Events Rain    
Averages and records for this station are not official NWS values.
T = Trace of Precipitation, MM = Missing Value Source: Averaged Metar Reports

Daily Weather History Graph

Daily Weather History Graph

Search for Another Location

Airport:

Trip Planner

Search our weather history database for the weather conditions in past years. The results will help you decide how hot, cold, wet, or windy it might be!

Date:

Astronomy

Jan. 01, 2014 Rise Set
Actual Time 6:43 AM AST 5:48 PM AST
Civil Twilight 6:20 AM AST 6:11 PM AST
Nautical Twilight 5:53 AM AST 6:39 PM AST
Astronomical Twilight 5:26 AM AST 7:05 PM AST
Moon 6:38 AM AST (1/1) 6:17 PM AST (1/1)
Length of Visible Light 11h 51m
Length of Day
11h 04m
Waxing Crescent, 0% of the Moon is Illuminated
Jan 1
Waxing Crescent
Jan 7
First Quarter
Jan 16
Full
Jan 24
Last Quarter
Jan 30
New

Hourly Weather History & Observations

Time (AST) Temp. Heat Index Dew Point Humidity Pressure Visibility Wind Dir Wind Speed Gust Speed Precip Events Conditions
12:00 AM 78.8 °F - 69.8 °F 74% 30.06 in 6.2 mi East 13.8 mph - N/A   Partly Cloudy
1:00 AM 78.8 °F - 69.8 °F 74% 30.06 in 6.2 mi East 13.8 mph - N/A   Scattered Clouds
2:00 AM 78 °F - 69 °F 67% 30.05 in 22 mi ENE 16.1 mph - - Rain Light Rain Showers
2:00 AM 77.0 °F - 69.8 °F 78% 30.04 in 6.2 mi ENE 16.1 mph - N/A   Partly Cloudy
3:00 AM 78.8 °F - 69.8 °F 74% 30.04 in 6.2 mi ENE 13.8 mph - N/A   Scattered Clouds
4:00 AM 77.0 °F - 69.8 °F 78% 30.04 in 6.2 mi ENE 12.7 mph - N/A   Partly Cloudy
5:00 AM 77 °F - 68 °F 67% 30.04 in 22 mi ENE 15.0 mph - -   Scattered Clouds
5:00 AM 77.0 °F - 68.0 °F 74% 30.04 in 6.2 mi ENE 15.0 mph - N/A   Partly Cloudy
6:00 AM 77.0 °F - 68.0 °F 74% 30.04 in 6.2 mi East 11.5 mph - N/A   Partly Cloudy
7:00 AM 77.0 °F - 69.8 °F 78% 30.04 in 6.2 mi ENE 15.0 mph - N/A   Partly Cloudy
8:00 AM 79 °F - 69 °F 64% 30.08 in 22 mi East 15.0 mph - -   Partly Cloudy
8:00 AM 78.8 °F - 69.8 °F 74% 30.06 in 6.2 mi East 15.0 mph - N/A   Scattered Clouds
9:00 AM 80.6 °F 83.9 °F 69.8 °F 70% 30.09 in 6.2 mi East 16.1 mph - N/A   Scattered Clouds
10:00 AM 80.6 °F 83.9 °F 69.8 °F 70% 30.09 in 6.2 mi ENE 20.7 mph - N/A   Scattered Clouds
11:00 AM 82 °F - 70 °F 58% 30.09 in 22 mi East 18.4 mph - -   Partly Cloudy
11:00 AM 80.6 °F 83.9 °F 69.8 °F 70% 30.06 in 6.2 mi East 18.4 mph - N/A   Scattered Clouds
12:00 PM 80.6 °F 83.9 °F 69.8 °F 70% 30.06 in 6.2 mi East 16.1 mph 29.9 mph N/A   Scattered Clouds
1:00 PM 82.4 °F 86.3 °F 69.8 °F 66% 30.04 in 6.2 mi ENE 17.3 mph 31.1 mph N/A   Scattered Clouds
2:00 PM 81 °F - 69 °F 60% 30.03 in 22 mi ENE 16.1 mph - -   Partly Cloudy
2:00 PM 80.6 °F 83.9 °F 69.8 °F 70% 30.01 in 6.2 mi ENE 16.1 mph - N/A   Mostly Cloudy
3:00 PM 82.4 °F 86.3 °F 69.8 °F 66% 30.01 in 6.2 mi East 17.3 mph - N/A   Mostly Cloudy
4:00 PM 80.6 °F 83.9 °F 69.8 °F 70% 30.01 in 6.2 mi East 15.0 mph - N/A   Mostly Cloudy
5:00 PM 80 °F - 69 °F 61% 30.03 in 22 mi East 15.0 mph - -   Partly Cloudy
5:00 PM 80.6 °F 83.9 °F 69.8 °F 70% 30.01 in 6.2 mi ENE 15.0 mph - N/A   Scattered Clouds
6:00 PM 78.8 °F - 69.8 °F 74% 30.01 in 6.2 mi East 12.7 mph - N/A   Scattered Clouds
7:00 PM 78.8 °F - 69.8 °F 74% 30.04 in 6.2 mi East 15.0 mph - N/A   Partly Cloudy
8:00 PM 79 °F - 70 °F 66% 30.05 in 19 mi ENE 15.0 mph - -   Partly Cloudy
8:00 PM 78.8 °F - 69.8 °F 74% 30.04 in 6.2 mi ENE 16.1 mph - N/A   Scattered Clouds
9:00 PM 78.8 °F - 69.8 °F 74% 30.04 in 6.2 mi East 15.0 mph - N/A   Scattered Clouds
10:00 PM 78.8 °F - 69.8 °F 74% 30.04 in 6.2 mi ENE 16.1 mph - N/A   Scattered Clouds
11:00 PM 78 °F - 70 °F 71% 30.05 in 19 mi ENE 18.4 mph - -   Partly Cloudy
11:00 PM 78.8 °F - 69.8 °F 74% 30.04 in 6.2 mi East 17.3 mph 31.1 mph N/A   Partly Cloudy